Weather History for La Junta, CO

Change the Weather History Date:

Wednesday, July 10, 2013

  Actual Average Record
Temperature  
Mean Temperature 82 °F 78 °F  
Max Temperature 99 °F 94 °F 104 °F (1954)
Min Temperature 65 °F 63 °F 53 °F (1999)
Degree Days  
Heating Degree Days 0 0  
Month to date heating degree days 0 0  
Since 1 June heating degree days 11 16  
Since 1 July heating degree days 0 0  
Cooling Degree Days 17 13  
Month to date cooling degree days 141 128  
Year to date cooling degree days 667 445  
Since 1 June cooling degree days 529 372  
Growing Degree Days 32 (Base 50)    
Moisture  
Dew Point 57 °F    
Average Humidity 51    
Maximum Humidity 81    
Minimum Humidity 21    
Precipitation  
Precipitation 0.14 in 0.06 in 1.44 in (1945)
Month to date precipitation 0.34 0.56  
Year to date precipitation 3.01 6.21  
Sea Level Pressure  
Sea Level Pressure 29.97 in    
Wind  
Wind Speed 13 mph (ESE)    
Max Wind Speed 40 mph    
Max Gust Speed 51 mph    
Visibility 8 miles    
Events Rain    
T = Trace of Precipitation, MM = Missing Value Source: NWS Daily Summary

Daily Weather History Graph

Daily Weather History Graph

Search for Another Location

Airport:

Trip Planner

Search our weather history database for the weather conditions in past years. The results will help you decide how hot, cold, wet, or windy it might be!

Date:

Astronomy

Jul. 10, 2013 Rise Set
Actual Time 5:40 AM MDT 8:18 PM MDT
Civil Twilight 5:09 AM MDT 8:49 PM MDT
Nautical Twilight 4:30 AM MDT 9:27 PM MDT
Astronomical Twilight 3:47 AM MDT 10:10 PM MDT
Moon 8:00 AM MDT (7/10) 9:33 PM MDT (7/10)
Length of Visible Light 15h 40m
Length of Day
14h 38m
Waxing Crescent, 5% of the Moon is Illuminated
Jul 10
Waxing Crescent
Jul 15
First Quarter
Jul 22
Full
Jul 29
Last Quarter
Aug 6
New

Hourly Weather History & Observations

Time (MDT) Temp. Heat Index Dew Point Humidity Pressure Visibility Wind Dir Wind Speed Gust Speed Precip Events Conditions
12:53 AM 80.1 °F 80.1 °F 55.0 °F 42% 29.90 in 10.0 mi SW 12.7 mph - N/A   Clear
1:53 AM 80.1 °F 80.0 °F 54.0 °F 40% 29.89 in 10.0 mi SW 16.1 mph - N/A   Clear
2:53 AM 77.0 °F - 53.1 °F 43% 29.89 in 10.0 mi SW 13.8 mph - N/A   Clear
3:53 AM 75.9 °F - 54.0 °F 46% 29.91 in 10.0 mi West 3.5 mph - N/A   Clear
4:53 AM 73.9 °F - 54.0 °F 50% 29.93 in 10.0 mi North 9.2 mph - N/A   Clear
5:53 AM 73.9 °F - 55.9 °F 53% 29.95 in 10.0 mi ENE 5.8 mph - N/A   Clear
6:53 AM 73.0 °F - 57.0 °F 57% 29.96 in 10.0 mi East 9.2 mph - N/A   Clear
7:53 AM 73.9 °F - 57.9 °F 57% 29.97 in 10.0 mi East 10.4 mph - N/A   Clear
8:53 AM 80.1 °F 80.6 °F 57.9 °F 47% 29.97 in 10.0 mi ESE 11.5 mph - N/A   Clear
9:53 AM 82.9 °F 82.1 °F 55.9 °F 39% 29.96 in 10.0 mi SE 8.1 mph - N/A   Clear
10:53 AM 88.0 °F 86.1 °F 55.0 °F 32% 29.95 in 10.0 mi ESE 8.1 mph - N/A   Clear
11:53 AM 90.0 °F 87.9 °F 55.0 °F 30% 29.94 in 10.0 mi SE 10.4 mph 17.3 mph N/A   Clear
12:53 PM 93.9 °F 92.0 °F 55.0 °F 27% 29.91 in 10.0 mi ESE 10.4 mph 17.3 mph N/A   Clear
1:53 PM 96.1 °F 93.8 °F 54.0 °F 24% 29.87 in 10.0 mi Variable 3.5 mph - N/A   Clear
2:53 PM 98.1 °F - 52.0 °F 21% 29.84 in 10.0 mi Variable 3.5 mph - N/A   Clear
3:53 PM 96.1 °F 93.5 °F 53.1 °F 23% 29.82 in 10.0 mi SE 20.7 mph 24.2 mph N/A   Mostly Cloudy
4:25 PM 89.6 °F 88.1 °F 57.2 °F 33% 30.04 in 10.0 mi NE 13.8 mph - 0.00 in   Mostly Cloudy
4:53 PM 84.9 °F 83.9 °F 57.0 °F 38% 29.83 in 4.0 mi South 27.6 mph 41.4 mph 0.00 in   Haze
4:55 PM 84.2 °F 83.5 °F 57.2 °F 40% 30.04 in 2.5 mi SSE 39.1 mph 49.5 mph N/A   Haze
5:09 PM 82.4 °F 82.0 °F 57.2 °F 42% 30.04 in 10.0 mi SSE 25.3 mph 36.8 mph N/A   Mostly Cloudy
5:53 PM 84.0 °F 82.9 °F 55.0 °F 37% 29.83 in 10.0 mi ESE 13.8 mph - N/A   Scattered Clouds
6:02 PM 78.8 °F - 57.2 °F 47% 30.12 in 1.5 mi NNW 33.4 mph 50.6 mph N/A   Haze
6:04 PM 75.2 °F - 59.0 °F 57% 30.13 in 0.8 mi North 40.3 mph 50.6 mph N/A   Haze
6:12 PM 73.4 °F - 59.0 °F 61% 30.16 in 1.2 mi North 28.8 mph 49.5 mph N/A   Haze
6:14 PM 73.4 °F - 60.8 °F 65% 30.17 in 4.0 mi North 33.4 mph 40.3 mph N/A   Haze
6:53 PM 66.0 °F - 63.0 °F 90% 29.99 in 8.0 mi NE 16.1 mph 29.9 mph 0.14 in Rain Light Rain
7:53 PM 68.0 °F - 61.0 °F 78% 30.00 in 10.0 mi East 18.4 mph 26.5 mph 0.00 in   Clear
8:53 PM 68.0 °F - 59.0 °F 73% 29.99 in 10.0 mi ESE 17.3 mph - N/A   Clear
9:53 PM 68.0 °F - 60.1 °F 76% 29.99 in 10.0 mi ESE 19.6 mph - N/A   Clear
10:53 PM 66.9 °F - 60.1 °F 79% 29.97 in 10.0 mi ESE 12.7 mph - N/A   Clear
11:53 PM 66.0 °F - 61.0 °F 84% 30.01 in 10.0 mi ESE 19.6 mph - N/A   Clear